Flag for Canada Weather past 2 weeks in Pictou County, Nova Scotia, Canada

Now
40 °F

Chilly.


Feels Like: 32 °F
Forecast: 44 / 52 °F
Wind: 14 mph from West

Location: Caribou Point

Current Time: Oct 20, 2014 at 9:03:34 AM

Latest Report: Oct 20, 2014 at 8:00 AM


Visibility: N/A

Pressure: 29.59 "Hg

Humidity: 95%

Dew point: 38 °F

Location of Pictou CountyLocation

Historic Weather in Pictou County — Graph

°F

Pictou County temperature yesterday

Maximum temperature yesterday: 65 °F (at 12:00 PM)
Minimum temperature yesterday: 54 °F (at 11:00 PM)
Average temperature yesterday: 58 °F

Past Weeks' High & Low Weather Summary

 TemperatureHumidityPressure
High74 °F (Oct 15, 2:00 PM)99% (Oct 8, 5:00 AM)30.34 "Hg (Oct 8, 5:00 AM)
Low40 °F (Oct 20, 7:00 AM)37% (Oct 9, 5:00 PM)29.48 "Hg (Oct 19, 3:00 AM)
Average57 °F79%29.95 "Hg
* Reported Oct 5 7:00 AM — Oct 20 7:00 AM, Pictou County, Weather by CustomWeather, © 2014

Note: Actual official high and low records may vary slightly from our data, if they occured in-between our weather recording intervals... More about our weather records

Advertising

Pictou County weather history for previous 24 hours

 ConditionsComfort  
Time TempWeatherWind HumidityBarometerVisibility
7:00 AM
Oct 20
40 °FQuite cool.17 mph98%29.54 "HgN/A
6:00 AM45 °FCool.31 mph89%29.52 "HgN/A
5:00 AM47 °FCool.31 mph90%29.50 "HgN/A
4:00 AM48 °FCool.26 mph92%29.49 "HgN/A
3:00 AM48 °FCool.25 mph93%29.50 "HgN/A
2:00 AM49 °FCool.16 mph91%29.50 "HgN/A
12:00 AM51 °FCool.21 mph94%29.52 "HgN/A
11:00 PM
Oct 19
54 °FCool.17 mph94%29.56 "HgN/A
10:00 PM55 °FCool.15 mph93%29.58 "HgN/A
9:00 PM56 °FCool.6 mph91%29.60 "HgN/A
8:00 PM57 °FCool.7 mph90%29.62 "HgN/A
7:00 PM58 °FCool.2 mph86%29.61 "HgN/A
6:00 PM58 °FCool.1 mph88%29.61 "HgN/A
5:00 PM58 °FCool.5 mph85%29.59 "HgN/A
4:00 PM60 °FCool.3 mph80%29.60 "HgN/A
3:00 PM62 °FCool.5 mph75%29.58 "HgN/A
2:00 PM60 °FCool.14 mph77%29.57 "HgN/A
1:00 PM64 °FMild.6 mph75%29.57 "HgN/A
12:00 PM65 °FMild.6 mph71%29.57 "HgN/A
11:00 AM62 °FCool.7 mph83%29.56 "HgN/A
10:00 AM62 °FCool.8 mph83%29.56 "HgN/A
9:00 AM60 °FCool.13 mph87%29.53 "HgN/A
Weather by CustomWeather, © 2014

See weather overviewHow to use our weather pages